Location: Mapua
(41.2500°S, 173.1000°E)
Time: 19:00:53
(UTC+13:00)

ISS - Visible Passes

Search period start: 22 January 2019 00:00
Search period end: 01 February 2019 00:00
Orbit: 404 x 410 km, 51.6° (Epoch: 22 January)

Date Brightness Start Highest point End Pass type
(mag) Time Alt. Az. Time Alt. Az. Time Alt. Az.
28 Jan -1.9 05:33:43 10° N 05:36:28 24° NE 05:39:14 10° ESE visible
29 Jan -1.3 04:44:06 11° NNE 04:45:17 13° NE 04:46:56 10° E visible
30 Jan -3.5 05:27:35 17° NW 05:30:02 61° NE 05:33:21 10° ESE visible
31 Jan -2.6 04:38:16 30° NNE 04:38:42 32° NE 04:41:44 10° ESE visible
